Regional Weather Roundup
Issued by NWS Cleveland, OH

Home | Current Version | Previous Version | Graphics & Text | Print | Product List | Glossary On
Versions: 1 2 3 4 5 6 7 8 9 10 11 12 13 14 15 16 17 18 19 20 21 22 23 24 25 26 27 28 29 30 31 32 33 34 35 36 37 38 39 40 41 42 43 44 45 46 47 48 49 50
000
ASUS41 KCLE 152110
RWRCLE
OHIO REGIONAL WEATHER ROUNDUP
NATIONAL WEATHER SERVICE WILMINGTON, OH
500 PM EDT TUE APR 15 2014

NOTE: "FAIR" INDICATES FEW OR NO CLOUDS BELOW 12,000 FEET WITH NO
SIGNIFICANT WEATHER AND/OR OBSTRUCTIONS TO VISIBILITY.

OHZ001>008-015>018-024>027-034-035-043-044-152200-
   NORTHWEST OHIO

CITY           SKY/WX    TMP DP  RH WIND       PRES   REMARKS
DEFIANCE       PTSUNNY   34  14  43 NW16G28   30.10R WCI  24
FINDLAY        CLOUDY    33  18  53 NW16      30.08R WCI  23
TOLEDO EXPRESS PTSUNNY   34  16  47 W16G24    30.07S WCI  24
TOLEDO METCALF CLOUDY    34  16  47 W18       30.08R WCI  23
LIMA           CLOUDY    33  19  56 NW21      30.08S WCI  21
$$

OHZ009>014-019>023-028>033-038-089-152200-
   NORTHEAST OHIO

CITY           SKY/WX    TMP DP  RH WIND       PRES   REMARKS
CLE-HOPKINS    FLURRIES  32  19  58 NW17G24   30.06R WCI  21
CLE-LAKEFRONT  PTSUNNY   32  23  69 W23       30.04R WCI  19
CUY CO. ARPT   CLOUDY    30  23  74 NW16G23   30.03R WCI  19
LORAIN-ELYRIA  FLURRIES  32  20  61 NW15G23   30.06R WCI  22
ASHTABULA      FLURRIES  29  19  66 NW18G26   30.00R WCI  16
AKRON-CANTON   LGT SNOW  29  22  73 NW14      30.00R FOG     WCI  19
WOOSTER        CLOUDY    30  21  69 NW20G25   30.04R WCI  17
MANSFIELD      CLOUDY    29  19  66 NW13      30.04R WCI  19
YOUNGSTOWN     FLURRIES  30  21  69 NW16G24   29.96F WCI  19
$$

OHZ042-051>053-060>062-070>072-077>081-152200-
  SOUTHWEST OHIO

CITY           SKY/WX    TMP DP  RH WIND       PRES   REMARKS
CINC-COVINGTON CLOUDY    38  20  48 NW15      30.11R
CINC-LUNKEN    CLOUDY    38  21  50 NW9       30.13S
HAMILTON       CLOUDY    41  21  44 NW20G25   30.13S
DAYTON         PTSUNNY   36  19  50 NW18      30.10S
WRIGHT-PAT AFB PTSUNNY   36  19  51 NW14      30.10R
DAYTON GENERAL CLOUDY    36  22  56 NW17G28   30.09S
WILMINGTON     CLOUDY    36  18  48 NW16      30.08S
$$

OHZ036-037-039>041-045>050-054>059-063>069-073>076-082>088-152200-
  CENTRAL AND SOUTHEAST OHIO

CITY           SKY/WX    TMP DP  RH WIND       PRES   REMARKS
COLUMBUS       CLOUDY    36  19  50 NW17      30.07R
OSU AIRPORT    CLOUDY    33  18  53 NW20      30.07R WCI  21
BOLTON FIELD   CLOUDY    34  21  60 NW17G23   30.08R WCI  23
RICKENBACK AFB CLOUDY    37  15  40 NW17G23   30.08R
NEWARK         CLOUDY    34  20  56 NW15G25   30.06R WCI  24
MARION         CLOUDY    31  18  58 NW14G23   30.07R WCI  21
LANCASTER      CLOUDY    35  20  54 NW15G24   30.07R WCI  25
ZANESVILLE     CLOUDY    32  20  61 NW16      30.06R WCI  21
NEW PHILLY     CLOUDY    31  21  66 NW12G21   30.06R WCI  22
$$



USA.gov is the U.S. government's official web portal to all federal, state and local government web resources and services.